Weather Roundup
Issued by NWS Corpus Christi, TX

Home | Current Version | Previous Version | Text Only | Print | Product List | Glossary On
Versions: 1 2 3 4 5 6 7 8 9 10 11 12 13 14 15 16 17 18 19 20 21 22 23 24 25 26 27 28 29 30 31 32 33 34 35 36 37 38 39 40 41 42 43 44 45 46 47 48 49 50
000
ASUS44 KCRP 301610
HRRCRP

SOUTH TEXAS REGIONAL WEATHER ROUNDUP
NATIONAL WEATHER SERVICE CORPUS CHRISTI TX
1100 AM CDT TUE AUG 30 2016


TXZ229>244-301700-
...CORPUS CHRISTI AREA OBSERVATIONS...

CITY           SKY/WX    TMP DP  RH WIND       PRES   REMARKS
CORPUS CHRISTI LGT RAIN  77  75  93 E10       29.93R
NAS CORPUS CHR NOT AVBL
ROCKPORT       NOT AVBL
KINGSVILLE NAS CLOUDY    77  77 100 NE12      29.92S
ALICE          CLOUDY    76  75  97 NE13      29.94R
FALFURRIAS     CLOUDY    79  75  89 N12       29.92S
$$

...VICTORIA AREA OBSERVATIONS...

CITY           SKY/WX    TMP DP  RH WIND       PRES   REMARKS
VICTORIA       CLOUDY    78  76  93 NE7       29.99R
BEEVILLE       CLOUDY    78  74  90 NE8       29.97R
PLEASANTON     PTSUNNY   77  74  90 NE6       30.01R
SAN ANTONIO    CLOUDY    79  71  76 NE10      30.03R
$$

...LAREDO AREA OBSERVATIONS...

CITY           SKY/WX    TMP DP  RH WIND       PRES   REMARKS
LAREDO         CLOUDY    82  72  71 NE12      29.98S
COTULLA        CLOUDY    79  73  82 NE7       30.00R
DEL RIO        CLOUDY    79  71  76 E5        30.04R
MCALLEN        CLOUDY    85  73  67 NW13      29.93R HX  91
HEBBRONVILLE   CLOUDY    78  72  80 NE12      29.98R
$$

...OTHER TEXAS OBSERVATIONS...

CITY           SKY/WX    TMP DP  RH WIND       PRES   REMARKS
BROWNSVILLE    MOSUNNY   89  74  60 NW13      29.91R HX  98
HOUSTON        CLOUDY    84  73  69 NE10      29.99R HX  90
COL. STATION   MOSUNNY   85  72  65 NE8       30.02R HX  91
AUSTIN         CLOUDY    80  73  79 NE12      30.03R
WACO           MOSUNNY   85  74  69 N7        30.06R HX  92
FORT WORTH     MOSUNNY   88  73  61 NE6       30.07R HX  95
WICHITA FALLS  MOSUNNY   87  70  56 SE9       30.11S HX  92
LUBBOCK        PTSUNNY   73  67  81 NE7       30.23R
EL PASO        LGT RAIN  71  62  73 E15       30.21R
$$

...MARINE OBSERVATIONS...

STATION/POSITION TIME  SKY/WX   TEMP    WIND        PRES    VSBY  WAVE   SWELL
                                AIR SEA DIR/SP/G                  HT/PER HT/PER
                 (UTC)          (F)     (DEG/KT/KT) (MB)    (MI)  (FT/S) (FT/S)
PORT ARANSAS     1500            78 85   60/ 14/ 17 1012.6F
BUOY 90 E PORT A 1550            80 85   70/ 16/ 19 1013.4R         6/ 7   2/11
BUOY 45 SE BAFFI 1550            81 86   80/ 16/ 17 1011.9R         5/ 7   2/12
BUOY 200 E PT IS 1550            85 87   60/ 12/ 14 1010.9R         3/ 7   3/ 7
BUOY 15 E GALVES 1550            83 85   60/ 10/ 12 1014.5R         4/ 5   3/ 5
$$




USA.gov is the U.S. government's official web portal to all federal, state and local government web resources and services.